Weather reports worldwide

Advertisment
Tampico/Tamps, Mexico (76548): temperature & dewpoint: 11.08.2018 15:00:00 - 17.08.2018 15:00:00 (CDT)Tampico/Tamps, Mexico (76548): wind speed: 11.08.2018 15:00:00 - 17.08.2018 15:00:00 (CDT)Tampico/Tamps, Mexico (76548): wind direction: 11.08.2018 15:00:00 - 17.08.2018 15:00:00 (CDT)Tampico/Tamps, Mexico (76548): reduced air pressure: 11.08.2018 15:00:00 - 17.08.2018 15:00:00 (CDT)Tampico/Tamps, Mexico (76548): visibility: 11.08.2018 15:00:00 - 17.08.2018 15:00:00 (CDT)
Date & Time tt [°C] td [°C] ff [km/h] ff [kn] dd ppp [hPa] vv [km]
17.08.2018 15:00:00 - - - - - - -
17.08.2018 14:00:00 - - - - - - -
17.08.2018 13:00:00 30,8 25,5 0 0 N 1018,7 22
17.08.2018 12:00:00 - - - - - - -
17.08.2018 11:00:00 - - - - - - -
17.08.2018 10:00:00 28,4 24,9 4 2 SE 1019,5 22
17.08.2018 09:00:00 - - - - - - -
17.08.2018 08:00:00 - - - - - - -
17.08.2018 07:00:00 26,6 25,0 4 2 ESE 1018,3 12
17.08.2018 06:00:00 - - - - - - -
17.08.2018 05:00:00 - - - - - - -
17.08.2018 04:00:00 27,6 24,9 4 2 SE 1018,7 10
17.08.2018 03:00:00 - - - - - - -
17.08.2018 02:00:00 - - - - - - -
17.08.2018 01:00:00 28,2 25,0 7 4 SE 1019,4 10
17.08.2018 00:00:00 - - - - - - -
16.08.2018 23:00:00 - - - - - - -
16.08.2018 22:00:00 28,8 25,0 11 6 ESE 1018,5 10
16.08.2018 21:00:00 - - - - - - -
16.08.2018 20:00:00 - - - - - - -
16.08.2018 19:00:00 32,6 25,1 11 6 ESE 1016,1 20
16.08.2018 18:00:00 - - - - - - -
16.08.2018 17:00:00 - - - - - - -
16.08.2018 16:00:00 36,2 27,1 11 6 SSE 1017,2 22
16.08.2018 15:00:00 - - - - - - -
16.08.2018 14:00:00 - - - - - - -
16.08.2018 13:00:00 35,2 27,1 7 4 ESE 1019,0 22
16.08.2018 12:00:00 - - - - - - -
16.08.2018 11:00:00 - - - - - - -
16.08.2018 10:00:00 30,4 25,0 0 0 N 1017,9 18
16.08.2018 09:00:00 - - - - - - -
16.08.2018 08:00:00 - - - - - - -
16.08.2018 07:00:00 25,4 24,9 0 0 N 1017,0 10
16.08.2018 06:00:00 - - - - - - -
16.08.2018 05:00:00 - - - - - - -
16.08.2018 04:00:00 27,0 24,3 4 2 SE 1017,0 10
16.08.2018 03:00:00 - - - - - - -
16.08.2018 02:00:00 - - - - - - -
16.08.2018 01:00:00 28,0 24,8 11 6 ESE 1017,3 10
16.08.2018 00:00:00 - - - - - - -
15.08.2018 23:00:00 - - - - - - -
15.08.2018 22:00:00 28,4 24,9 14 8 ESE 1015,4 10
15.08.2018 21:00:00 - - - - - - -
15.08.2018 20:00:00 - - - - - - -
15.08.2018 19:00:00 31,8 24,5 14 8 ESE 1013,9 22
15.08.2018 18:00:00 - - - - - - -
15.08.2018 17:00:00 - - - - - - -
15.08.2018 16:00:00 35,6 26,1 11 6 SE 1014,5 22
15.08.2018 15:00:00 - - - - - - -
15.08.2018 14:00:00 - - - - - - -
15.08.2018 13:00:00 33,4 26,0 11 6 SE 1015,7 22
15.08.2018 12:00:00 - - - - - - -
15.08.2018 11:00:00 - - - - - - -
15.08.2018 10:00:00 30,2 25,1 4 2 W 1016,3 22
15.08.2018 09:00:00 - - - - - - -
15.08.2018 08:00:00 - - - - - - -
15.08.2018 07:00:00 26,0 24,1 4 2 W 1015,9 12
15.08.2018 06:00:00 - - - - - - -
15.08.2018 05:00:00 - - - - - - -
15.08.2018 04:00:00 26,8 24,1 4 2 SE 1015,6 10
15.08.2018 03:00:00 - - - - - - -
15.08.2018 02:00:00 - - - - - - -
15.08.2018 01:00:00 27,8 24,6 11 6 ESE 1016,6 10
15.08.2018 00:00:00 - - - - - - -
14.08.2018 23:00:00 - - - - - - -
14.08.2018 22:00:00 28,2 24,1 14 8 ENE 1014,6 10
14.08.2018 21:00:00 - - - - - - -
14.08.2018 20:00:00 - - - - - - -
14.08.2018 19:00:00 32,8 25,1 18 10 SE 1013,4 20
14.08.2018 18:00:00 - - - - - - -
14.08.2018 17:00:00 - - - - - - -
14.08.2018 16:00:00 35,4 25,0 14 8 SE 1013,7 22
14.08.2018 15:00:00 - - - - - - -
14.08.2018 14:00:00 - - - - - - -
14.08.2018 13:00:00 33,8 26,7 7 4 S 1015,0 22
14.08.2018 12:00:00 - - - - - - -
14.08.2018 11:00:00 - - - - - - -
14.08.2018 10:00:00 29,6 23,3 4 2 SW 1016,2 22
14.08.2018 09:00:00 - - - - - - -
14.08.2018 08:00:00 - - - - - - -
14.08.2018 07:00:00 25,2 23,5 4 2 SE 1015,3 12
14.08.2018 06:00:00 - - - - - - -
14.08.2018 05:00:00 - - - - - - -
14.08.2018 04:00:00 26,6 23,2 4 2 SE 1015,7 10
14.08.2018 03:00:00 - - - - - - -
14.08.2018 02:00:00 - - - - - - -
14.08.2018 01:00:00 27,4 24,7 4 2 ESE 1017,0 10
14.08.2018 00:00:00 - - - - - - -
13.08.2018 23:00:00 - - - - - - -
13.08.2018 22:00:00 28,4 24,9 7 4 ESE 1015,5 10
13.08.2018 21:00:00 - - - - - - -
13.08.2018 20:00:00 - - - - - - -
13.08.2018 19:00:00 31,2 25,6 14 8 ESE 1013,8 20
13.08.2018 18:00:00 - - - - - - -
13.08.2018 17:00:00 - - - - - - -
13.08.2018 16:00:00 35,2 27,1 4 2 ESE 1015,3 22
13.08.2018 15:00:00 - - - - - - -
13.08.2018 14:00:00 - - - - - - -
13.08.2018 13:00:00 35,2 27,1 7 4 ESE 1017,2 22
13.08.2018 12:00:00 - - - - - - -
13.08.2018 11:00:00 - - - - - - -
13.08.2018 10:00:00 28,8 25,3 4 2 SE 1017,4 20
13.08.2018 09:00:00 - - - - - - -
13.08.2018 08:00:00 - - - - - - -
13.08.2018 07:00:00 25,6 24,2 4 2 SE 1017,3 12
13.08.2018 06:00:00 - - - - - - -
13.08.2018 05:00:00 - - - - - - -
13.08.2018 04:00:00 26,8 24,4 4 2 SE 1017,3 10
13.08.2018 03:00:00 - - - - - - -
13.08.2018 02:00:00 - - - - - - -
13.08.2018 01:00:00 27,4 25,0 4 2 SE 1018,1 10
13.08.2018 00:00:00 - - - - - - -
12.08.2018 23:00:00 - - - - - - -
12.08.2018 22:00:00 28,0 25,6 4 2 SE 1016,2 10
12.08.2018 21:00:00 - - - - - - -
12.08.2018 20:00:00 - - - - - - -
12.08.2018 19:00:00 31,4 27,2 7 4 SE 1013,8 22
12.08.2018 18:00:00 - - - - - - -
12.08.2018 17:00:00 - - - - - - -
12.08.2018 16:00:00 31,2 25,3 7 4 SE 1016,7 22
12.08.2018 15:00:00 - - - - - - -
12.08.2018 14:00:00 - - - - - - -
12.08.2018 13:00:00 25,4 23,8 4 2 ESE 1017,9 22
12.08.2018 12:00:00 - - - - - - -
12.08.2018 11:00:00 - - - - - - -
12.08.2018 10:00:00 25,4 25,1 7 4 SE 1018,5 18
12.08.2018 09:00:00 - - - - - - -
12.08.2018 08:00:00 - - - - - - -
12.08.2018 07:00:00 27,6 26,0 4 2 SE 1015,8 12
12.08.2018 06:00:00 - - - - - - -
12.08.2018 05:00:00 - - - - - - -
12.08.2018 04:00:00 28,4 25,7 7 4 ESE 1016,0 10
12.08.2018 03:00:00 - - - - - - -
12.08.2018 02:00:00 - - - - - - -
12.08.2018 01:00:00 28,8 25,3 14 8 ESE 1016,7 10
12.08.2018 00:00:00 - - - - - - -
11.08.2018 23:00:00 - - - - - - -
11.08.2018 22:00:00 28,2 25,0 14 8 E 1014,9 10
11.08.2018 21:00:00 - - - - - - -
11.08.2018 20:00:00 - - - - - - -
11.08.2018 19:00:00 30,0 25,2 22 12 ESE 1012,6 22
11.08.2018 18:00:00 - - - - - - -
11.08.2018 17:00:00 - - - - - - -
11.08.2018 16:00:00 32,6 26,0 18 10 ESE 1014,7 22
11.08.2018 15:00:00 - - - - - - -

tt = temperature
td = dewpoint
ff = wind speed
dd = wind direction
ppp = reduced air pressure
vv = visibility

Next stations